Phoenix, AZ

11:19 AM MST on August 20, 2017 (GMT -0700)
Phoenix Sky Harbor International

Weather History for KPHX - June, 2012

Change the Weather History Date:

Saturday, June 9, 2012

  Actual Average Record
Temperature  
Mean Temperature 89 °F 89 °F  
Max Temperature 103 °F 103 °F 114 °F (1985)
Min Temperature 75 °F 76 °F 54 °F (1907)
Degree Days  
Heating Degree Days 0 0  
Month to date heating degree days 0 0  
Since 1 June heating degree days 0 0  
Since 1 July heating degree days 837 935  
Cooling Degree Days 24 24  
Month to date cooling degree days 228 207  
Year to date cooling degree days 1280 1093  
Since 1 June cooling degree days 228 207  
Growing Degree Days 38 (Base 50)    
Moisture  
Dew Point 29 °F    
Average Humidity 14    
Maximum Humidity 21    
Minimum Humidity 7    
Precipitation  
Precipitation 0.00 in 0.00 in 0.07 in (1898)
Month to date precipitation 0.00 0.00  
Year to date precipitation 0.36 3.21  
Snow  
Snow 0.00 in - - ()
Month to date snowfall 0.0  
Year to date snowfall 0.0  
Since 1 July snowfall 0.0  
Snow Depth 0.00 in    
Sea Level Pressure  
Sea Level Pressure 29.62 in    
Wind  
Wind Speed 9 mph (South)    
Max Wind Speed 20 mph    
Max Gust Speed 23 mph    
Visibility 10 miles    
Events      
T = Trace of Precipitation, MM = Missing Value Source: NWS Daily Summary

Daily Weather History Graph

Daily Weather History Graph

Search for Another Location

Airport or City:

Trip Planner

Search our weather history database for the weather conditions in past years. The results will help you decide how hot, cold, wet, or windy it might be!

Date:

Astronomy

Jun. 09, 2012 Rise Set
Actual Time 5:17 AM MST 7:37 PM MST
Civil Twilight 4:49 AM MST 8:06 PM MST
Nautical Twilight 4:13 AM MST 8:41 PM MST
Astronomical Twilight 3:35 AM MST 9:19 PM MST
Moon 11:48 PM MST (6/9) 10:53 AM MST (6/9)
Length of Visible Light 15h 17m
Length of Day
14h 19m
Waning Gibbous, 67% of the Moon is Illuminated
Jun 9
Waning Gibbous
Jun 11
Last Quarter
Jun 19
New
Jun 26
First Quarter
Jul 3
Full

Hourly Weather History & Observations

Time (MST) Temp. Dew Point Humidity Pressure Visibility Wind Dir Wind Speed Gust Speed Precip Events Conditions
12:51 AM 86.0 °F 26.6 °F 12% 29.70 in 10.0 mi SE 3.5 mph - N/A   Clear
1:51 AM 82.0 °F 30.9 °F 16% 29.65 in 10.0 mi East 4.6 mph - N/A   Clear
2:51 AM 81.0 °F 28.0 °F 14% 29.65 in 10.0 mi East 6.9 mph - N/A   Clear
3:51 AM 79.0 °F 30.0 °F 17% 29.66 in 10.0 mi East 11.5 mph - N/A   Clear
4:51 AM 77.0 °F 34.0 °F 21% 29.67 in 10.0 mi East 8.1 mph - N/A   Clear
5:51 AM 75.9 °F 34.0 °F 22% 29.68 in 10.0 mi East 6.9 mph - N/A   Clear
6:51 AM 80.1 °F 30.9 °F 17% 29.69 in 10.0 mi East 9.2 mph - N/A   Partly Cloudy
7:51 AM 82.0 °F 30.9 °F 16% 29.69 in 10.0 mi ESE 10.4 mph - N/A   Partly Cloudy
8:51 AM 86.0 °F 30.9 °F 14% 29.69 in 10.0 mi East 6.9 mph - N/A   Clear
9:51 AM 91.0 °F 28.0 °F 10% 29.68 in 10.0 mi SSE 8.1 mph - N/A   Clear
10:51 AM 96.1 °F 25.0 °F 8% 29.66 in 10.0 mi South 12.7 mph - N/A   Clear
11:51 AM 98.1 °F 26.1 °F 8% 29.65 in 10.0 mi South 9.2 mph - N/A   Clear
12:51 PM 97.0 °F 27.0 °F 8% 29.62 in 10.0 mi Calm Calm - N/A   Clear
1:51 PM 100.0 °F 27.0 °F 8% 29.60 in 10.0 mi West 9.2 mph - N/A   Clear
2:51 PM 100.4 °F 28.4 °F 8% 29.63 in 10.0 mi SSW 9.2 mph - N/A   Clear
3:51 PM 100.9 °F 28.0 °F 8% 29.55 in 10.0 mi NW 8.1 mph - N/A   Clear
4:51 PM 100.9 °F 28.0 °F 8% 29.53 in 10.0 mi NNW 8.1 mph 17.3 mph N/A   Clear
5:51 PM 100.9 °F 28.9 °F 8% 29.52 in 10.0 mi WSW 12.7 mph - N/A   Clear
6:51 PM 100.0 °F 30.0 °F 9% 29.52 in 10.0 mi West 11.5 mph - N/A   Clear
7:51 PM 97.0 °F 33.1 °F 11% 29.54 in 10.0 mi West 16.1 mph - N/A   Clear
8:51 PM 93.9 °F 30.9 °F 11% 29.56 in 10.0 mi West 9.2 mph - N/A   Clear
9:51 PM 91.0 °F 30.0 °F 11% 29.58 in 10.0 mi WSW 10.4 mph - N/A   Clear
10:51 PM 91.0 °F 28.0 °F 10% 29.59 in 10.0 mi West 6.9 mph - N/A   Clear
11:51 PM 89.1 °F 30.0 °F 12% 29.60 in 10.0 mi WNW 8.1 mph - N/A   Clear